{"data":{"norad_id":64013,"intl_designator":"2025-101V","name":"STARLINK-34182","alt_names":[],"object_type":"PAYLOAD","status":"ACTIVE","operator":null,"country":"US","launch_date":"2025-05-14","launch_site_code":"AFETR","launch_vehicle":null,"mission":null,"orbit_class":"UNKNOWN","rcs_meters":null,"size_class":null,"mass_kg":null,"dimensions":null,"purposes":["comms"],"wikipedia_slug":null,"has_3d_model":false,"image_url":null,"decayed_at":null,"tle_current":{"epoch":"2026-05-24T17:54:00.005760Z","epoch_age_seconds":92932,"freshness":"FRESH","line1":"1 64013U 25101V   26144.74583340  .00016332  00000+0  60150-3 0  9993","line2":"2 64013  43.0008 285.2694 0001113 274.9092  85.1632 15.27590232 58729","mean_motion":15.27590232,"eccentricity":0.0001113,"inclination_deg":43.0008,"raan_deg":285.2694,"arg_perigee_deg":274.9092,"mean_anomaly_deg":85.1632,"bstar":0.0006015,"rev_number":5872,"period_min":94.266117302588,"perigee_km":482.25481131926,"apogee_km":483.78210452419,"semimajor_km":6861.1554579217,"source":"CELESTRAK","updated_at":"2026-05-25T13:38:20.221799Z"}}}